Find Starlink 35009

NORAD ID: 65449 Int'l Des: 2025-194 Owner: SPXS Country: US Constellation: starlink operational
LEOCIRCULARRETROGRADESSO

当前视图

正在加载3D地球...

About Starlink 35009

Starlink 35009 (NORAD 65449) is a starlink constellation satellite (v2 mini) launched Sep 3, 2025 by SPXS of US. It operates in LEO, CIRCULAR, RETROGRADE, SSO orbit with a mass of 575.00 kg.

即将过境

Passes for default location (London). Set your location on the main map for personalized predictions.

高度历史

Loading altitude history...

两行轨道根数

1 65449U 25194R 26263.49530806 .00014946 00000-0 46406-3 0 9990
2 65449 97.2846 113.0929 0003115 85.8375 274.3223 15.33461557 59060
Epoch: Sep 20, 2026 • Age: 19 hours

当前状态

高度 486.9 km
远地点 / 近地点 N/A
速度 7.62 km/s
星下点 -51.35°S, 26.03°E
发射日期 Sep 3, 2025
运行时间 1 year
类型 internet

技术详情

分类 Payload
质量 575.00 kg
干质量 530.00 kg
长度 0.30 m
跨度 29.00 m
形状 ? Box + pan
制造商 SPXS
平台类型 Starlink V2MO
阶段状态 In Orbit
所有者/国家 SPXS/US

Most Searched